Weather History for KLRD - September, 2012

Change the Weather History Date:

Thursday, September 27, 2012

  Actual Average Record
Temperature  
Mean Temperature 87 °F 80 °F  
Max Temperature 97 °F 91 °F 105 °F (2005)
Min Temperature 76 °F 70 °F 47 °F (1942)
Degree Days  
Heating Degree Days 0 0  
Month to date heating degree days 0 0  
Since 1 July heating degree days 0 0  
Cooling Degree Days 22 15  
Month to date cooling degree days 550 496  
Year to date cooling degree days 4378 3739  
Growing Degree Days 35 (Base 50)    
Moisture  
Dew Point 71 °F    
Average Humidity 66    
Maximum Humidity 90    
Minimum Humidity 37    
Precipitation  
Precipitation T in 0.09 in 2.80 in (1973)
Month to date precipitation 0.29 2.67  
Year to date precipitation 6.19 15.66  
Sea Level Pressure  
Sea Level Pressure 29.96 in    
Wind  
Wind Speed 11 mph (SE)    
Max Wind Speed 20 mph    
Max Gust Speed 24 mph    
Visibility 10 miles    
Events Rain    
T = Trace of Precipitation, MM = Missing Value Source: NWS Daily Summary

Daily Weather History Graph

Daily Weather History Graph

Search for Another Location

Airport or City:

Trip Planner

Search our weather history database for the weather conditions in past years. The results will help you decide how hot, cold, wet, or windy it might be!

Date:

Astronomy

Sep. 27, 2012 Rise Set
Actual Time 7:28 AM CDT 7:27 PM CDT
Civil Twilight 7:05 AM CDT 7:51 PM CDT
Nautical Twilight 6:38 AM CDT 8:18 PM CDT
Astronomical Twilight 6:11 AM CDT 8:45 PM CDT
Moon 5:53 PM CDT (9/27) 5:09 AM CDT (9/27)
Length of Visible Light 12h 45m
Length of Day
11h 58m
Waxing Gibbous, 94% of the Moon is Illuminated
Sep 27
Waxing Gibbous
Sep 29
Full
Oct 8
Last Quarter
Oct 15
New
Oct 21
First Quarter

Hourly Weather History & Observations

Time (CDT) Temp. Heat Index Dew Point Humidity Pressure Visibility Wind Dir Wind Speed Gust Speed Precip Events Conditions
12:56 AM 81.0 °F 85.6 °F 72.9 °F 76% 29.97 in 10.0 mi SE 12.7 mph - N/A   Clear
1:56 AM 80.6 °F 85.4 °F 73.4 °F 79% 30.01 in 10.0 mi SE 11.5 mph - N/A   Clear
2:56 AM 79.0 °F - 72.9 °F 81% 29.98 in 10.0 mi SE 9.2 mph - N/A   Clear
3:56 AM 77.9 °F - 73.9 °F 88% 29.96 in 10.0 mi SE 9.2 mph - N/A   Clear
4:56 AM 77.0 °F - 72.9 °F 87% 29.96 in 10.0 mi ESE 8.1 mph - N/A   Partly Cloudy
5:56 AM 75.9 °F - 72.9 °F 90% 29.96 in 10.0 mi East 6.9 mph - N/A   Clear
6:56 AM 75.9 °F - 72.9 °F 90% 29.98 in 10.0 mi East 6.9 mph - N/A   Clear
7:56 AM 75.9 °F - 72.9 °F 90% 29.99 in 10.0 mi East 8.1 mph - N/A   Clear
8:56 AM 77.9 °F - 73.9 °F 88% 30.01 in 10.0 mi ESE 10.4 mph - N/A   Partly Cloudy
9:49 AM 82.4 °F 88.2 °F 73.4 °F 74% 30.05 in 10.0 mi SE 12.7 mph - N/A   Mostly Cloudy
9:56 AM 82.9 °F 88.5 °F 72.9 °F 71% 30.01 in 10.0 mi SE 11.5 mph - N/A   Mostly Cloudy
10:56 AM 86.0 °F 91.1 °F 70.9 °F 60% 30.01 in 10.0 mi SSE 15.0 mph - N/A   Mostly Cloudy
11:56 AM 88.9 °F 94.7 °F 70.9 °F 55% 30.00 in 10.0 mi SE 13.8 mph - N/A   Mostly Cloudy
12:56 PM 90.9 °F 96.2 °F 70.0 °F 50% 29.98 in 10.0 mi SSE 12.7 mph - N/A   Scattered Clouds
1:56 PM 91.9 °F 95.4 °F 66.9 °F 44% 29.95 in 10.0 mi SSE 10.4 mph - N/A   Partly Cloudy
2:56 PM 92.8 °F 96.1 °F 66.9 °F 42% 29.91 in 10.0 mi SE 8.1 mph - N/A   Scattered Clouds
3:56 PM 95.0 °F 97.9 °F 65.8 °F 38% 29.88 in 10.0 mi SSE 10.4 mph - N/A   Scattered Clouds
4:56 PM 93.9 °F 98.6 °F 68.0 °F 43% 29.87 in 10.0 mi SSE 17.3 mph - 0.00 in   Scattered Clouds
5:07 PM 89.6 °F 94.7 °F 69.8 °F 52% 29.91 in 10.0 mi South 6.9 mph - 0.00 in Rain Light Rain
5:56 PM 93.9 °F 96.5 °F 65.8 °F 39% 29.86 in 10.0 mi ESE 8.1 mph - 0.00 in   Clear
6:56 PM 86.9 °F 91.7 °F 70.0 °F 57% 29.88 in 10.0 mi ESE 12.7 mph - 0.00 in   Partly Cloudy
7:56 PM 86.9 °F 90.3 °F 68.0 °F 53% 29.90 in 10.0 mi ESE 12.7 mph - N/A   Clear
8:56 PM 86.0 °F 90.7 °F 70.0 °F 59% 29.94 in 10.0 mi SE 16.1 mph - N/A   Clear
9:56 PM 83.8 °F 89.2 °F 72.0 °F 67% 29.95 in 10.0 mi SE 11.5 mph - N/A   Clear
10:56 PM 82.9 °F 88.5 °F 72.9 °F 71% 29.96 in 10.0 mi ESE 11.5 mph - N/A   Partly Cloudy
11:56 PM 81.9 °F 86.6 °F 72.0 °F 72% 29.96 in 10.0 mi SE 13.8 mph - N/A   Clear